�N����,����,�~����,�C��,���x,�C��,����,���ϕ���,�ő�u�ԕ���,�ő厞����,���˗�,�I�_���x,�n�����x,�ő啗���N��,DTYPE
"16/07/23","00:10",0.0,22.6,83.0,1006.2,300.4,1.0,1.7,323.0,0.00,19.6,25.7,"00:00:24",1
"16/07/23","00:20",0.0,22.4,83.9,1006.0,310.1,1.3,2.1,326.3,0.00,19.6,25.8,"00:19:12",1
"16/07/23","00:30",0.0,22.1,85.0,1006.2,311.8,1.1,1.6,322.9,0.00,19.5,25.7,"00:24:40",1
"16/07/23","00:40",0.0,22.0,85.7,1006.2,306.4,0.8,1.6,323.9,0.00,19.5,25.6,"00:35:28",1
"16/07/23","00:50",0.0,21.9,86.0,1006.2,296.3,1.0,1.6,317.8,0.00,19.5,25.7,"00:48:56",1
"16/07/23","01:00",0.0,21.8,86.8,1006.4,305.3,1.1,1.7,324.9,0.00,19.5,25.6,"00:56:40",1
"16/07/23","01:10",0.0,21.7,87.3,1006.4,298.1,1.0,2.2,326.1,0.00,19.5,25.7,"01:09:28",1
"16/07/23","01:20",0.0,22.1,86.8,1006.0,313.1,1.1,2.5,341.7,0.00,19.8,25.6,"01:16:08",1
"16/07/23","01:30",0.0,22.5,85.4,1006.2,327.5,1.3,2.1,331.8,0.00,20.0,25.7,"01:25:44",1
"16/07/23","01:40",0.0,22.4,85.4,1006.2,324.9,1.2,2.1,337.4,0.00,19.9,25.4,"01:36:08",1
"16/07/23","01:50",0.0,22.2,85.9,1006.4,310.9,1.1,1.8,317.9,0.00,19.8,25.5,"01:45:28",1
"16/07/23","02:00",0.0,22.0,86.5,1006.4,307.7,1.3,2.1,325.2,0.00,19.7,25.3,"01:56:48",1
"16/07/23","02:10",0.0,22.0,87.0,1006.2,289.0,0.8,1.2,305.2,0.00,19.8,25.1,"02:00:16",1
"16/07/23","02:20",0.0,22.0,87.0,1006.4,313.0,0.8,1.7,320.8,0.00,19.8,25.2,"02:14:32",1
"16/07/23","02:30",0.0,22.5,85.6,1006.4,322.5,1.1,1.8,330.3,0.00,20.0,25.2,"02:25:20",1
"16/07/23","02:40",0.0,22.6,84.7,1006.2,321.5,1.1,1.9,329.8,0.00,19.9,25.1,"02:38:32",1
"16/07/23","02:50",0.0,22.5,84.6,1006.4,327.4,1.5,2.1,334.2,0.00,19.8,24.9,"02:42:32",1
"16/07/23","03:00",0.0,22.2,85.6,1006.2,312.2,1.2,1.6,316.6,0.00,19.7,25.0,"02:56:24",1
"16/07/23","03:10",0.0,21.8,86.7,1006.2,310.8,1.0,1.7,327.1,0.00,19.5,24.8,"03:03:52",1
"16/07/23","03:20",0.0,21.6,87.3,1006.2,303.9,0.8,1.4,312.9,0.00,19.4,24.9,"03:14:32",1
"16/07/23","03:30",0.0,21.3,88.2,1006.2,304.7,0.8,1.2,316.5,0.00,19.3,25.0,"03:21:36",1
"16/07/23","03:40",0.0,21.1,89.0,1006.2,313.1,1.0,1.2,317.1,0.00,19.3,24.8,"03:32:48",1
"16/07/23","03:50",0.0,21.0,89.5,1006.4,311.9,1.0,1.3,323.0,0.00,19.2,24.8,"03:45:28",1
"16/07/23","04:00",0.0,20.9,90.0,1006.4,310.0,1.0,1.3,324.8,0.00,19.2,24.8,"03:54:00",1
"16/07/23","04:10",0.0,20.9,90.3,1006.9,304.2,0.8,1.3,314.1,0.00,19.3,24.8,"04:00:08",1
"16/07/23","04:20",0.0,20.9,90.7,1006.7,310.1,1.0,1.3,324.8,0.00,19.4,24.6,"04:14:00",1
"16/07/23","04:30",0.0,20.8,90.9,1006.9,302.9,0.8,1.1,312.1,0.00,19.3,24.3,"04:20:08",1
"16/07/23","04:40",0.0,20.7,91.1,1006.7,311.0,1.0,1.3,325.0,0.00,19.2,24.7,"04:30:32",1
"16/07/23","04:50",0.0,20.7,91.3,1006.9,308.4,0.7,1.0,328.0,0.00,19.3,24.6,"04:40:56",1
"16/07/23","05:00",0.0,20.6,91.7,1006.9,310.6,1.0,1.6,323.3,0.00,19.2,24.6,"04:51:36",1
"16/07/23","05:10",0.0,20.6,92.0,1006.7,312.2,0.8,1.1,310.8,0.00,19.3,24.6,"05:04:08",1
"16/07/23","05:20",0.0,20.6,92.3,1006.7,302.1,0.8,1.2,319.6,0.00,19.3,24.4,"05:18:32",1
"16/07/23","05:30",0.0,20.7,92.7,1007.1,311.2,0.8,1.3,322.9,0.00,19.5,24.4,"05:20:40",1
"16/07/23","05:40",0.0,21.0,92.8,1007.1,299.5,0.3,0.9,307.3,0.01,19.8,24.5,"05:32:40",1
"16/07/23","05:50",0.0,21.3,92.1,1007.1,293.4,0.2,0.6,284.6,0.01,20.0,24.6,"05:40:24",1
"16/07/23","06:00",0.0,21.8,91.6,1006.7,291.3,0.6,0.9,308.3,0.02,20.4,24.4,"05:58:16",1
"16/07/23","06:10",0.0,22.4,90.6,1007.1,312.8,0.6,1.0,304.0,0.04,20.8,24.4,"06:00:16",1
"16/07/23","06:20",0.0,23.5,87.4,1006.9,285.0,0.1,0.5,267.1,0.05,21.3,24.4,"06:14:16",1
"16/07/23","06:30",0.0,24.6,83.1,1007.1,22.7,0.1,0.6,108.7,0.06,21.6,24.4,"06:20:08",1
"16/07/23","06:40",0.0,24.6,81.5,1007.6,335.1,1.0,1.6,347.2,0.04,21.3,24.7,"06:32:16",1
"16/07/23","06:50",0.0,24.7,80.0,1007.1,351.7,0.7,1.7,346.9,0.05,21.1,24.7,"06:49:12",1
"16/07/23","07:00",0.0,24.9,78.1,1006.9,336.3,0.6,1.4,350.2,0.08,20.9,24.8,"06:57:44",1
"16/07/23","07:10",0.0,25.7,75.6,1006.9,74.2,0.6,1.7,69.8,0.11,21.1,24.9,"07:04:56",1
"16/07/23","07:20",0.0,26.3,71.7,1006.7,98.9,0.7,2.2,42.1,0.17,20.8,25.1,"07:15:20",1
"16/07/23","07:30",0.0,26.7,71.1,1006.7,106.8,1.1,4.0,144.5,0.22,21.1,25.1,"07:20:02",1
"16/07/23","07:40",0.0,26.3,71.6,1006.4,130.0,1.1,3.2,143.4,0.18,20.8,25.0,"07:31:28",1
"16/07/23","07:50",0.0,27.3,68.0,1006.4,105.9,0.8,2.1,145.0,0.23,20.9,25.6,"07:41:28",1
"16/07/23","08:00",0.0,26.3,70.8,1006.2,125.2,1.1,2.4,154.0,0.15,20.6,25.4,"07:52:48",1
"16/07/23","08:10",0.0,26.8,68.5,1006.0,120.9,1.0,2.5,119.2,0.23,20.6,25.7,"08:07:28",1
"16/07/23","08:20",0.0,26.9,67.5,1006.0,103.3,0.8,2.1,152.9,0.19,20.4,25.8,"08:11:04",1
"16/07/23","08:30",0.0,27.4,66.0,1006.0,94.1,0.8,3.1,351.2,0.21,20.5,26.0,"08:29:52",1
"16/07/23","08:40",0.0,27.0,68.1,1005.5,113.7,1.0,2.9,102.7,0.20,20.7,26.1,"08:31:04",1
"16/07/23","08:50",0.0,27.0,68.9,1005.7,115.1,0.8,2.5,165.9,0.17,20.8,26.3,"08:45:44",1
"16/07/23","09:00",0.0,26.7,68.1,1006.0,144.0,1.2,3.7,111.6,0.20,20.4,26.1,"08:54:40",1
"16/07/23","09:10",0.0,27.4,66.0,1005.7,118.6,0.8,2.6,45.1,0.23,20.5,26.6,"09:02:00",1
"16/07/23","09:20",0.0,27.8,65.7,1005.7,98.9,1.1,2.1,96.4,0.27,20.8,26.4,"09:12:00",1
"16/07/23","09:30",0.0,27.7,64.5,1006.2,126.7,1.3,3.3,138.6,0.28,20.4,26.7,"09:28:48",1
"16/07/23","09:40",0.0,28.2,63.8,1006.0,109.0,0.8,2.0,96.8,0.27,20.7,26.6,"09:37:44",1
"16/07/23","09:50",0.0,28.7,62.5,1006.7,137.7,1.2,2.6,125.3,0.37,20.9,26.9,"09:42:24",1
"16/07/23","10:00",0.0,29.0,61.8,1006.7,115.3,1.1,2.7,153.7,0.41,21.0,27.3,"09:50:02",1
"16/07/23","10:10",0.0,27.8,64.8,1006.9,142.3,1.5,3.5,140.7,0.27,20.6,27.4,"10:00:40",1
"16/07/23","10:20",0.0,28.5,63.3,1006.4,129.4,1.0,2.6,150.0,0.29,20.9,27.3,"10:12:32",1
"16/07/23","10:30",0.0,28.3,64.4,1006.4,121.8,0.8,2.0,194.5,0.27,21.0,27.6,"10:26:56",1
"16/07/23","10:40",0.0,28.8,60.3,1006.7,41.0,1.0,2.4,7.6,0.31,20.4,27.6,"10:30:02",1
"16/07/23","10:50",0.0,28.8,60.9,1006.4,39.2,1.2,2.5,12.3,0.37,20.5,27.9,"10:44:08",1
"16/07/23","11:00",0.0,29.9,57.9,1006.4,130.5,1.1,2.5,188.5,0.49,20.8,28.1,"10:54:40",1
"16/07/23","11:10",0.0,30.2,56.5,1007.1,121.6,1.0,2.6,201.1,0.48,20.6,28.2,"11:05:28",1
"16/07/23","11:20",0.0,30.2,58.2,1007.1,69.3,1.1,2.5,142.2,0.39,21.1,28.4,"11:16:24",1
"16/07/23","11:30",0.0,30.7,54.7,1007.4,141.0,1.2,2.4,220.8,0.61,20.6,28.7,"11:29:52",1
"16/07/23","11:40",0.0,31.4,55.6,1007.6,144.9,1.3,2.7,193.5,0.63,21.5,29.1,"11:36:48",1
"16/07/23","11:50",0.0,31.8,51.6,1007.4,163.0,1.2,2.8,181.4,0.64,20.6,29.4,"11:42:00",1
"16/07/23","12:00",0.0,31.0,54.8,1007.8,110.6,0.8,2.5,53.8,0.44,20.9,29.3,"11:52:08",1
"16/07/23","12:10",0.0,31.5,50.3,1007.6,93.4,1.0,2.4,107.9,0.54,20.0,29.8,"12:02:08",1
"16/07/23","12:20",0.0,31.9,52.1,1007.4,115.3,1.1,2.7,134.2,0.57,20.9,30.2,"12:16:40",1
"16/07/23","12:30",0.0,31.8,56.6,1007.4,144.2,1.2,2.8,185.2,0.56,22.2,30.4,"12:23:28",1
"16/07/23","12:40",0.0,32.4,50.6,1007.4,164.5,1.3,3.5,183.6,0.61,20.9,30.6,"12:32:08",1
"16/07/23","12:50",0.0,31.6,53.6,1007.1,129.2,1.2,3.1,141.2,0.43,21.1,30.7,"12:45:28",1
"16/07/23","13:00",0.0,31.3,55.6,1006.4,165.7,1.7,3.6,185.7,0.42,21.4,30.7,"12:57:12",1
"16/07/23","13:10",0.0,32.1,54.3,1006.7,134.8,1.2,2.8,143.4,0.48,21.8,30.7,"13:04:24",1
"16/07/23","13:20",0.0,32.2,51.9,1006.7,103.2,1.3,3.4,33.1,0.52,21.1,30.7,"13:18:32",1
"16/07/23","13:30",0.0,30.6,56.7,1006.4,118.9,1.2,3.5,105.2,0.21,21.1,30.7,"13:26:48",1
"16/07/23","13:40",0.0,30.8,57.8,1006.2,150.5,1.0,2.2,134.7,0.23,21.6,30.6,"13:36:40",1
"16/07/23","13:50",0.0,31.2,51.3,1006.2,141.0,0.8,2.0,127.0,0.27,20.0,30.5,"13:48:32",1
"16/07/23","14:00",0.0,32.4,53.3,1006.2,154.5,0.6,1.3,128.0,0.39,21.7,30.4,"13:56:00",1
"16/07/23","14:10",0.0,33.6,46.8,1006.7,147.3,1.0,2.4,145.5,0.59,20.7,30.7,"14:02:48",1
"16/07/23","14:20",0.0,33.7,46.0,1006.7,182.3,1.1,3.1,20.4,0.58,20.5,30.7,"14:18:48",1
"16/07/23","14:30",0.0,31.7,52.8,1006.4,88.7,1.1,3.4,61.3,0.27,20.9,30.7,"14:20:32",1
"16/07/23","14:40",0.0,32.2,50.8,1006.2,111.7,0.8,2.1,125.2,0.24,20.8,30.9,"14:32:24",1
"16/07/23","14:50",0.0,31.5,52.6,1006.0,99.5,1.1,3.9,30.7,0.19,20.7,30.7,"14:41:36",1
"16/07/23","15:00",0.0,31.1,53.5,1006.0,84.8,1.1,2.9,53.5,0.15,20.6,30.6,"14:50:56",1
"16/07/23","15:10",0.0,31.1,52.1,1005.2,80.8,0.7,1.8,37.7,0.09,20.2,30.5,"15:06:32",1
"16/07/23","15:20",0.0,30.8,54.1,1005.0,86.2,1.1,3.1,68.8,0.07,20.5,30.5,"15:14:48",1
"16/07/23","15:30",0.0,30.9,55.6,1005.0,90.4,0.8,2.1,75.8,0.14,21.0,30.3,"15:22:40",1
"16/07/23","15:40",0.0,30.9,55.3,1005.0,103.0,1.1,2.2,60.7,0.15,20.9,30.1,"15:36:48",1
"16/07/23","15:50",0.0,30.8,54.2,1004.5,103.7,0.8,2.5,88.4,0.13,20.5,30.2,"15:41:52",1
"16/07/23","16:00",0.0,31.2,53.8,1005.0,117.4,0.8,2.4,57.6,0.22,20.8,30.1,"15:58:08",1
"16/07/23","16:10",0.0,31.2,53.4,1004.5,65.8,1.0,2.7,4.8,0.20,20.6,30.1,"16:04:56",1
"16/07/23","16:20",0.0,31.1,53.8,1004.8,117.8,1.0,2.4,121.1,0.22,20.7,30.0,"16:13:44",1
"16/07/23","16:30",0.0,31.2,54.0,1005.0,76.1,1.1,2.5,102.8,0.21,20.8,30.0,"16:28:48",1
"16/07/23","16:40",0.0,31.3,53.8,1004.8,91.4,1.1,3.1,2.1,0.16,20.9,29.9,"16:32:00",1
"16/07/23","16:50",0.0,30.8,53.7,1004.5,68.3,1.2,2.9,27.5,0.08,20.4,29.7,"16:49:20",1
"16/07/23","17:00",0.0,30.3,55.8,1004.8,113.9,1.0,2.9,52.7,0.07,20.5,29.5,"16:51:52",1
"16/07/23","17:10",0.0,30.4,55.6,1004.3,71.2,1.1,3.5,63.2,0.13,20.6,29.8,"17:09:40",1
"16/07/23","17:20",0.0,30.4,56.3,1004.3,97.5,0.8,2.2,84.4,0.08,20.8,29.6,"17:10:56",1
"16/07/23","17:30",0.0,30.2,57.1,1004.1,97.2,1.0,2.5,88.7,0.07,20.8,29.4,"17:23:12",1
"16/07/23","17:40",0.0,29.9,58.1,1003.8,77.3,1.1,2.5,11.7,0.05,20.8,29.3,"17:38:40",1
"16/07/23","17:50",0.0,29.4,59.4,1003.8,33.7,1.3,3.9,24.2,0.03,20.7,29.3,"17:40:02",1
"16/07/23","18:00",0.0,29.2,60.1,1004.1,40.7,1.0,2.2,14.8,0.03,20.7,28.9,"17:52:24",1
"16/07/23","18:10",0.0,29.0,61.0,1004.1,44.1,0.8,2.1,18.9,0.02,20.8,29.0,"18:08:48",1
"16/07/23","18:20",0.0,28.8,62.0,1004.1,34.4,1.0,3.1,353.3,0.02,20.8,29.1,"18:15:44",1
"16/07/23","18:30",0.0,28.6,62.8,1004.1,54.4,0.7,1.9,359.9,0.00,20.9,28.8,"18:23:28",1
"16/07/23","18:40",0.0,28.2,64.2,1004.8,9.3,0.7,2.1,0.4,0.00,20.8,28.6,"18:30:24",1
"16/07/23","18:50",0.0,27.9,64.5,1005.0,17.6,1.0,2.1,350.1,0.00,20.6,28.7,"18:43:12",1
"16/07/23","19:00",0.0,27.6,65.7,1004.8,355.5,0.5,1.6,333.8,0.00,20.6,28.5,"18:50:08",1
"16/07/23","19:10",0.0,27.2,67.3,1005.0,1.9,0.7,1.8,330.0,0.00,20.7,28.5,"19:04:24",1
"16/07/23","19:20",0.0,26.9,68.5,1005.2,354.0,0.8,1.8,334.5,0.00,20.7,28.3,"19:15:36",1
"16/07/23","19:30",0.0,26.6,69.6,1005.5,359.6,0.8,1.8,346.4,0.00,20.6,28.1,"19:29:28",1
"16/07/23","19:40",0.0,26.1,71.2,1005.5,354.4,1.0,2.0,343.8,0.00,20.5,28.1,"19:35:36",1
"16/07/23","19:50",0.0,25.9,71.9,1005.5,347.6,1.0,1.9,359.9,0.00,20.5,27.9,"19:42:48",1
"16/07/23","20:00",0.0,25.5,74.7,1006.0,343.4,1.2,1.8,350.1,0.00,20.7,27.6,"19:51:28",1
"16/07/23","20:10",0.0,24.9,77.0,1006.0,344.6,1.1,2.1,345.9,0.00,20.6,27.7,"20:06:00",1
"16/07/23","20:20",0.0,24.6,78.4,1006.0,340.7,1.2,2.1,332.4,0.00,20.6,27.6,"20:12:08",1
"16/07/23","20:30",0.0,24.4,79.6,1006.0,335.8,1.1,2.0,353.0,0.00,20.7,27.6,"20:24:16",1
"16/07/23","20:40",0.0,24.1,80.2,1006.7,299.9,0.7,1.6,328.2,0.00,20.5,27.5,"20:36:08",1
"16/07/23","20:50",0.0,24.4,79.1,1006.4,341.5,0.7,2.5,42.5,0.00,20.6,27.1,"20:48:16",1
"16/07/23","21:00",0.0,24.8,76.9,1006.7,335.9,0.8,1.9,323.4,0.00,20.5,27.1,"20:58:08",1
"16/07/23","21:10",0.0,24.7,77.1,1006.7,317.4,0.8,1.6,12.6,0.00,20.5,27.1,"21:01:20",1
"16/07/23","21:20",0.0,24.3,78.2,1007.1,289.0,0.6,0.9,272.5,0.00,20.3,27.2,"21:15:20",1
"16/07/23","21:30",0.0,23.9,79.5,1007.1,304.2,0.6,1.0,325.6,0.00,20.2,27.0,"21:22:00",1
"16/07/23","21:40",0.0,23.7,80.4,1006.7,306.9,1.0,1.4,343.3,0.00,20.2,26.9,"21:33:36",1
"16/07/23","21:50",0.0,23.6,80.8,1007.1,289.0,0.8,1.4,316.2,0.00,20.1,26.8,"21:49:04",1
"16/07/23","22:00",0.0,23.5,81.2,1007.1,315.3,1.0,1.8,323.5,0.00,20.1,26.6,"21:56:08",1
"16/07/23","22:10",0.0,23.3,82.2,1007.4,292.4,0.8,1.4,324.6,0.00,20.1,26.7,"22:08:08",1
"16/07/23","22:20",0.0,23.1,82.8,1007.4,303.8,1.0,1.4,313.2,0.00,20.1,26.6,"22:14:00",1
"16/07/23","22:30",0.0,22.8,83.7,1007.6,306.0,1.1,1.7,321.5,0.00,19.9,26.6,"22:28:56",1
"16/07/23","22:40",0.0,22.7,84.3,1007.6,305.1,0.8,1.2,331.0,0.00,20.0,26.3,"22:30:48",1
"16/07/23","22:50",0.0,22.7,84.4,1007.6,300.0,1.0,1.3,333.9,0.00,20.0,26.2,"22:40:24",1
"16/07/23","23:00",0.0,22.4,85.1,1007.6,294.5,1.0,1.6,326.9,0.00,19.8,26.3,"22:51:52",1
"16/07/23","23:10",0.0,22.4,86.0,1007.8,316.4,1.1,1.6,333.8,0.00,20.0,26.0,"23:01:52",1
"16/07/23","23:20",0.0,22.2,86.6,1008.1,298.4,0.8,1.6,314.0,0.00,19.9,26.0,"23:16:48",1
"16/07/23","23:30",0.0,22.0,87.5,1008.1,305.9,1.0,1.6,323.0,0.00,19.9,26.0,"23:26:08",1
"16/07/23","23:40",0.0,21.7,87.9,1007.8,300.0,0.7,1.0,313.8,0.00,19.6,26.0,"23:34:08",1
"16/07/23","23:50",0.0,21.7,88.3,1007.8,307.9,0.8,1.3,313.8,0.00,19.7,25.8,"23:42:08",1
"16/07/23","24:00",0.0,21.7,88.6,1007.8,303.8,1.0,1.4,321.1,0.00,19.8,25.6,"23:53:04",1
